EWG6NA LEPA-EDDH

Flight info

Callsign EWG6NA
Flight time 2h 26m
Altitude 36000
Route MEROS DCT LAPIT DCT CHELY/N0463F320 DCT LUMAS DCT MAXIR DCT LUSOL DCT BODRU DCT OKTET DCT IRMAR/N0452F360 DCT KINES DCT VANAS DCT ESOKO DCT GODRA/N0449F370 DCT LOKTA DCT TEDGO DCT HAREM DCT LOHRE DCT ELNAT/N0453F360 P605 NOLGO NOLGO3P
Aircraft A320/M-SDE3FGHIRWY/LB1

Departure

Time 2026-04-26 18:00
Airport Palma de Mallorca Airport (LEPA)

Arrival

Time 2026-04-26 20:26
Airport Hamburg Helmut Schmidt Airport (EDDH)
Time Latitude Longitude Altitude Speed Heading
2026-04-26 17:18 39.55129 2.72972 38 ft 0 kts 162°
2026-04-26 17:48 39.55135 2.72969 38 ft 4 kts 162°
2026-04-26 17:48 39.55161 2.72958 38 ft 3 kts 161°
2026-04-26 17:48 39.55181 2.72947 37 ft 4 kts 137°
2026-04-26 17:49 39.55191 2.72922 38 ft 4 kts 76°
2026-04-26 17:49 39.55180 2.72892 38 ft 3 kts 59°
2026-04-26 17:49 39.55172 2.72874 38 ft 0 kts 59°
2026-04-26 17:51 39.55176 2.72883 37 ft 7 kts 59°
2026-04-26 17:51 39.55191 2.72914 38 ft 4 kts 59°
2026-04-26 17:51 39.55226 2.72991 38 ft 12 kts 59°
2026-04-26 17:52 39.55296 2.73031 38 ft 16 kts 342°
2026-04-26 17:52 39.55403 2.72989 38 ft 16 kts 26°
2026-04-26 17:52 39.55465 2.73099 38 ft 14 kts 58°
2026-04-26 17:52 39.55515 2.73205 38 ft 15 kts 58°
2026-04-26 17:53 39.55578 2.73342 38 ft 21 kts 59°
2026-04-26 17:53 39.55664 2.73522 38 ft 26 kts 58°
2026-04-26 17:53 39.55765 2.73736 37 ft 29 kts 59°
2026-04-26 17:54 39.55958 2.74143 37 ft 23 kts 59°
2026-04-26 17:54 39.56040 2.74316 37 ft 22 kts 59°
2026-04-26 17:54 39.56121 2.74448 38 ft 14 kts 22°
2026-04-26 17:54 39.56139 2.74453 38 ft 0 kts
2026-04-26 17:56 39.56208 2.74418 38 ft 14 kts 328°
2026-04-26 17:57 39.56231 2.74273 38 ft 0 kts 239°
2026-04-26 17:59 39.56217 2.74243 37 ft 17 kts 239°
2026-04-26 17:59 39.56017 2.73821 38 ft 89 kts 238°
2026-04-26 17:59 39.55590 2.72919 37 ft 144 kts 238°
2026-04-26 18:00 39.55010 2.71689 340 ft 163 kts 239°
2026-04-26 18:00 39.54434 2.70430 998 ft 163 kts 237°
2026-04-26 18:00 39.53829 2.69147 1460 ft 176 kts 237°
2026-04-26 18:00 39.53144 2.67709 1754 ft 198 kts 237°
2026-04-26 18:01 39.52375 2.66099 2079 ft 221 kts 237°
2026-04-26 18:01 39.51557 2.64385 2650 ft 226 kts 237°
2026-04-26 18:01 39.50724 2.62637 3264 ft 231 kts 237°
2026-04-26 18:01 39.49825 2.60921 3969 ft 233 kts 226°
2026-04-26 18:02 39.48509 2.59566 4328 ft 253 kts 204°
2026-04-26 18:02 39.47420 2.58936 4618 ft 266 kts 201°
2026-04-26 18:02 39.45091 2.57639 5195 ft 275 kts 201°
2026-04-26 18:02 39.43297 2.56791 6054 ft 276 kts 187°
2026-04-26 18:03 39.41419 2.57059 6834 ft 276 kts 154°
2026-04-26 18:03 39.39934 2.58583 7608 ft 276 kts 128°
2026-04-26 18:03 39.38634 2.60431 8410 ft 280 kts 140°
2026-04-26 18:03 39.37035 2.61898 9222 ft 283 kts 141°
2026-04-26 18:04 39.35585 2.63631 10023 ft 286 kts 134°
2026-04-26 18:04 39.34144 2.65466 10502 ft 300 kts 135°
2026-04-26 18:04 39.32580 2.67407 10715 ft 324 kts 135°
2026-04-26 18:05 39.29095 2.71683 11186 ft 362 kts 136°
2026-04-26 18:05 39.27535 2.74188 11771 ft 367 kts 117°
2026-04-26 18:05 39.26853 2.77350 12397 ft 371 kts 94°
2026-04-26 18:05 39.26800 2.80690 13088 ft 374 kts 91°
2026-04-26 18:06 39.26792 2.84066 13723 ft 378 kts 90°
2026-04-26 18:06 39.26940 2.87511 14331 ft 382 kts 82°
2026-04-26 18:06 39.27566 2.90806 14930 ft 385 kts 71°
2026-04-26 18:06 39.28681 2.93972 15496 ft 390 kts 61°
2026-04-26 18:07 39.30045 2.97015 16096 ft 392 kts 60°
2026-04-26 18:07 39.31410 3.00076 16666 ft 396 kts 60°
2026-04-26 18:07 39.32787 3.03170 17278 ft 398 kts 61°
2026-04-26 18:07 39.33701 3.05226 17682 ft 399 kts 61°
2026-04-26 18:08 39.35557 3.09413 18421 ft 404 kts 61°
2026-04-26 18:08 39.36956 3.12580 18902 ft 407 kts 61°
2026-04-26 18:08 39.38363 3.15767 19378 ft 410 kts 60°
2026-04-26 18:08 39.39778 3.18972 19841 ft 412 kts 61°
2026-04-26 18:09 39.41207 3.22214 20294 ft 415 kts 61°
2026-04-26 18:09 39.42647 3.25480 20736 ft 418 kts 60°
2026-04-26 18:09 39.44105 3.28744 21176 ft 421 kts 60°
2026-04-26 18:09 39.45585 3.31976 21582 ft 423 kts 59°
2026-04-26 18:10 39.47126 3.35296 21995 ft 426 kts 59°
2026-04-26 18:10 39.48644 3.38548 22381 ft 429 kts 59°
2026-04-26 18:10 39.50189 3.41864 22771 ft 431 kts 59°
2026-04-26 18:10 39.51734 3.45199 23147 ft 433 kts 59°
2026-04-26 18:11 39.53284 3.48565 23527 ft 436 kts 59°
2026-04-26 18:11 39.54835 3.51952 23853 ft 439 kts 59°
2026-04-26 18:11 39.56389 3.55362 24154 ft 441 kts 60°
2026-04-26 18:11 39.57948 3.58787 24453 ft 443 kts 59°
2026-04-26 18:12 39.59783 3.61999 24747 ft 445 kts 46°
2026-04-26 18:12 39.62227 3.64480 25035 ft 448 kts 30°
2026-04-26 18:12 39.65105 3.66051 25313 ft 451 kts 19°
2026-04-26 18:12 39.68087 3.67341 25593 ft 453 kts 19°
2026-04-26 18:13 39.71080 3.68628 25853 ft 454 kts 19°
2026-04-26 18:13 39.74087 3.69922 26132 ft 456 kts 19°
2026-04-26 18:13 39.77102 3.71224 26383 ft 458 kts 19°
2026-04-26 18:13 39.79111 3.72095 26552 ft 459 kts 19°
2026-04-26 18:14 39.83174 3.73859 26868 ft 461 kts 19°
2026-04-26 18:14 39.86219 3.75186 27108 ft 462 kts 19°
2026-04-26 18:14 39.89270 3.76517 27327 ft 464 kts 19°
2026-04-26 18:14 39.92332 3.77855 27590 ft 464 kts 19°
2026-04-26 18:15 39.95391 3.79196 27909 ft 463 kts 19°
2026-04-26 18:15 39.98445 3.80537 28230 ft 462 kts 19°
2026-04-26 18:15 40.01478 3.81911 28520 ft 462 kts 20°
2026-04-26 18:15 40.04506 3.83341 28824 ft 461 kts 20°
2026-04-26 18:16 40.07510 3.84798 29134 ft 461 kts 21°
2026-04-26 18:16 40.13510 3.87733 29771 ft 460 kts 20°
2026-04-26 18:16 40.16509 3.89186 30090 ft 459 kts 20°
2026-04-26 18:17 40.19509 3.90628 30384 ft 459 kts 20°
2026-04-26 18:17 40.22504 3.92065 30640 ft 459 kts 20°
2026-04-26 18:17 40.25502 3.93498 30919 ft 458 kts 20°
2026-04-26 18:17 40.28458 3.94914 31186 ft 458 kts 19°
2026-04-26 18:18 40.31446 3.96349 31456 ft 458 kts 20°
2026-04-26 18:18 40.34438 3.97784 31719 ft 457 kts 19°
2026-04-26 18:18 40.37426 3.99219 31992 ft 457 kts 20°
2026-04-26 18:18 40.40402 4.00650 32275 ft 456 kts 20°
2026-04-26 18:19 40.43379 4.02087 32566 ft 455 kts 19°
2026-04-26 18:19 40.46349 4.03525 32855 ft 454 kts 19°
2026-04-26 18:19 40.49316 4.04964 33138 ft 454 kts 19°
2026-04-26 18:19 40.52274 4.06400 33418 ft 453 kts 19°
2026-04-26 18:20 40.55228 4.07830 33694 ft 453 kts 19°
2026-04-26 18:20 40.58190 4.09268 33972 ft 452 kts 19°
2026-04-26 18:20 40.61139 4.10700 34229 ft 452 kts 19°
2026-04-26 18:20 40.63089 4.11647 34396 ft 451 kts 19°
2026-04-26 18:21 40.67024 4.13559 34723 ft 450 kts 19°
2026-04-26 18:21 40.69964 4.14988 34955 ft 449 kts 19°
2026-04-26 18:21 40.72895 4.16415 35173 ft 449 kts 19°
2026-04-26 18:21 40.75825 4.17841 35397 ft 448 kts 19°
2026-04-26 18:22 40.78747 4.19264 35605 ft 448 kts 19°
2026-04-26 18:22 40.81669 4.20690 35822 ft 447 kts 19°
2026-04-26 18:22 40.84583 4.22116 36021 ft 446 kts 19°
2026-04-26 18:22 40.87500 4.23548 36133 ft 448 kts 19°
2026-04-26 18:23 40.93379 4.26437 36147 ft 454 kts 19°
2026-04-26 18:23 40.99343 4.29364 36147 ft 460 kts 19°
2026-04-26 18:24 41.05364 4.32324 36149 ft 463 kts 19°
2026-04-26 18:24 41.11404 4.35296 36142 ft 464 kts 19°
2026-04-26 18:25 41.17451 4.38292 36141 ft 464 kts 19°
2026-04-26 18:25 41.23484 4.41334 36139 ft 464 kts 19°
2026-04-26 18:26 41.29511 4.44398 36141 ft 464 kts 19°
2026-04-26 18:26 41.35504 4.47430 36137 ft 464 kts 19°
2026-04-26 18:27 41.41538 4.50475 36129 ft 464 kts 19°
2026-04-26 18:27 41.47572 4.53534 36131 ft 464 kts 19°
2026-04-26 18:28 41.53602 4.56598 36127 ft 464 kts 19°
2026-04-26 18:28 41.59632 4.59657 36125 ft 464 kts 19°
2026-04-26 18:29 41.65669 4.62738 36120 ft 464 kts 19°
2026-04-26 18:29 41.71715 4.65835 36126 ft 465 kts 19°
2026-04-26 18:30 41.77431 4.69936 36128 ft 468 kts 29°
2026-04-26 18:30 41.83019 4.74436 36132 ft 468 kts 29°
2026-04-26 18:31 41.88604 4.78931 36133 ft 468 kts 29°
2026-04-26 18:31 41.94190 4.83432 36138 ft 468 kts 28°
2026-04-26 18:32 41.99740 4.87914 36139 ft 469 kts 28°
2026-04-26 18:32 42.05329 4.92442 36135 ft 469 kts 28°
2026-04-26 18:33 42.10916 4.96974 36141 ft 469 kts 28°
2026-04-26 18:33 42.16512 5.01519 36131 ft 470 kts 28°
2026-04-26 18:34 42.22111 5.06082 36128 ft 470 kts 28°
2026-04-26 18:34 42.27711 5.10651 36128 ft 470 kts 28°
2026-04-26 18:35 42.33311 5.15235 36139 ft 471 kts 28°
2026-04-26 18:35 42.38908 5.19830 36129 ft 471 kts 28°
2026-04-26 18:36 42.44518 5.24433 36131 ft 471 kts 28°
2026-04-26 18:36 42.50117 5.29041 36146 ft 471 kts 28°
2026-04-26 18:37 42.55731 5.33676 36139 ft 472 kts 28°
2026-04-26 18:37 42.61304 5.38279 36129 ft 473 kts 28°
2026-04-26 18:38 42.66922 5.42939 36129 ft 473 kts 28°
2026-04-26 18:38 42.72536 5.47618 36131 ft 473 kts 28°
2026-04-26 18:39 42.78147 5.52285 36134 ft 473 kts 28°
2026-04-26 18:39 42.83966 5.56350 36135 ft 469 kts 19°
2026-04-26 18:40 42.90028 5.59670 36147 ft 469 kts 19°
2026-04-26 18:40 42.96092 5.62972 36138 ft 470 kts 19°
2026-04-26 18:41 43.02169 5.66278 36139 ft 470 kts 19°
2026-04-26 18:41 43.08237 5.69598 36140 ft 470 kts 19°
2026-04-26 18:42 43.14312 5.72935 36143 ft 470 kts 19°
2026-04-26 18:42 43.20386 5.76271 36140 ft 470 kts 19°
2026-04-26 18:43 43.26463 5.79622 36134 ft 471 kts 19°
2026-04-26 18:43 43.31515 5.82411 36142 ft 471 kts 19°
2026-04-26 18:44 43.37592 5.85768 36142 ft 471 kts 19°
2026-04-26 18:44 43.43678 5.89139 36142 ft 471 kts 19°
2026-04-26 18:45 43.49761 5.92514 36155 ft 471 kts 20°
2026-04-26 18:45 43.55834 5.95900 36152 ft 470 kts 20°
2026-04-26 18:46 43.61895 5.99292 36148 ft 470 kts 20°
2026-04-26 18:46 43.67955 6.02682 36155 ft 469 kts 20°
2026-04-26 18:47 43.74008 6.06080 36152 ft 469 kts 20°
2026-04-26 18:47 43.80028 6.09605 36149 ft 470 kts 22°
2026-04-26 18:48 43.85879 6.13578 36149 ft 472 kts 25°
2026-04-26 18:48 43.91717 6.17742 36155 ft 471 kts 25°
2026-04-26 18:49 43.97572 6.21821 36154 ft 471 kts 24°
2026-04-26 18:49 44.03459 6.25834 36162 ft 471 kts 24°
2026-04-26 18:50 44.09342 6.29832 36174 ft 470 kts 24°
2026-04-26 18:50 44.15215 6.33869 36171 ft 471 kts 25°
2026-04-26 18:51 44.21073 6.37927 36173 ft 470 kts 25°
2026-04-26 18:51 44.27062 6.41468 36176 ft 465 kts 10°
2026-04-26 18:52 44.33414 6.43109 36175 ft 464 kts
2026-04-26 18:52 44.39772 6.44692 36168 ft 463 kts
2026-04-26 18:53 44.46126 6.46275 36188 ft 465 kts
2026-04-26 18:53 44.52484 6.47884 36180 ft 465 kts
2026-04-26 18:54 44.58841 6.49654 36176 ft 465 kts
2026-04-26 18:54 44.65182 6.51480 36174 ft 465 kts
2026-04-26 18:55 44.71530 6.53271 36170 ft 465 kts
2026-04-26 18:55 44.77875 6.55041 36181 ft 465 kts
2026-04-26 18:56 44.84186 6.56801 36191 ft 465 kts
2026-04-26 18:56 44.90528 6.58585 36194 ft 464 kts
2026-04-26 18:57 44.95836 6.60090 36195 ft 464 kts
2026-04-26 18:57 45.03185 6.62182 36199 ft 464 kts
2026-04-26 18:58 45.09508 6.63968 36203 ft 463 kts
2026-04-26 18:58 45.15823 6.65764 36208 ft 463 kts
2026-04-26 18:59 45.22131 6.67566 36218 ft 462 kts
2026-04-26 18:59 45.28427 6.69363 36216 ft 461 kts
2026-04-26 19:00 45.34706 6.71157 36215 ft 460 kts
2026-04-26 19:00 45.40966 6.73088 36219 ft 460 kts 11°
2026-04-26 19:01 45.47049 6.75876 36216 ft 463 kts 25°
2026-04-26 19:01 45.52633 6.80472 36218 ft 463 kts 28°
2026-04-26 19:02 45.58211 6.85071 36221 ft 462 kts 27°
2026-04-26 19:02 45.62837 6.88871 36221 ft 461 kts 28°
2026-04-26 19:03 45.69324 6.94267 36220 ft 461 kts 28°
2026-04-26 19:03 45.74854 6.98910 36188 ft 461 kts 28°
2026-04-26 19:04 45.80380 7.03542 36190 ft 459 kts 28°
2026-04-26 19:04 45.85898 7.08175 36183 ft 459 kts 28°
2026-04-26 19:05 45.94159 7.15117 36170 ft 459 kts 28°
2026-04-26 19:06 45.99636 7.19745 36183 ft 460 kts 28°
2026-04-26 19:06 46.05158 7.24428 36179 ft 460 kts 28°
2026-04-26 19:07 46.10674 7.29119 36155 ft 460 kts 28°
2026-04-26 19:07 46.16186 7.33815 36161 ft 460 kts 28°
2026-04-26 19:08 46.21698 7.38518 36169 ft 460 kts 28°
2026-04-26 19:08 46.27196 7.43225 36168 ft 459 kts 28°
2026-04-26 19:09 46.32688 7.47931 36166 ft 458 kts 28°
2026-04-26 19:09 46.38171 7.52635 36198 ft 457 kts 28°
2026-04-26 19:10 46.43641 7.57347 36196 ft 457 kts 28°
2026-04-26 19:10 46.49112 7.62069 36200 ft 457 kts 28°
2026-04-26 19:11 46.54573 7.66802 36195 ft 457 kts 28°
2026-04-26 19:11 46.60012 7.71532 36470 ft 452 kts 28°
2026-04-26 19:11 46.62686 7.73903 36730 ft 449 kts 29°
2026-04-26 19:12 46.65299 7.76267 36989 ft 446 kts 29°
2026-04-26 19:12 46.67958 7.78700 37156 ft 446 kts 29°
2026-04-26 19:12 46.70591 7.81113 37197 ft 448 kts 29°
2026-04-26 19:13 46.75898 7.85964 37188 ft 452 kts 29°
2026-04-26 19:13 46.81216 7.90812 37187 ft 454 kts 29°
2026-04-26 19:14 46.86576 7.95705 37187 ft 454 kts 29°
2026-04-26 19:14 46.91924 8.00600 37192 ft 453 kts 29°
2026-04-26 19:15 46.97275 8.05511 37196 ft 454 kts 29°
2026-04-26 19:15 47.02625 8.10424 37205 ft 454 kts 29°
2026-04-26 19:16 47.07974 8.15354 37206 ft 454 kts 29°
2026-04-26 19:16 47.13312 8.20293 37197 ft 454 kts 30°
2026-04-26 19:17 47.18652 8.25251 37201 ft 453 kts 30°
2026-04-26 19:17 47.23987 8.30215 37207 ft 454 kts 30°
2026-04-26 19:18 47.29301 8.35166 37210 ft 455 kts 30°
2026-04-26 19:18 47.34654 8.40162 37211 ft 456 kts 30°
2026-04-26 19:19 47.40023 8.45177 37208 ft 456 kts 30°
2026-04-26 19:19 47.45381 8.50192 37207 ft 456 kts 30°
2026-04-26 19:20 47.50741 8.55242 37219 ft 457 kts 30°
2026-04-26 19:20 47.56098 8.60305 37215 ft 456 kts 30°
2026-04-26 19:21 47.61457 8.65379 37217 ft 456 kts 30°
2026-04-26 19:21 47.66812 8.70434 37219 ft 456 kts 30°
2026-04-26 19:22 47.72155 8.75504 37238 ft 456 kts 30°
2026-04-26 19:22 47.77504 8.80593 37240 ft 456 kts 30°
2026-04-26 19:23 47.82845 8.85692 37236 ft 456 kts 30°
2026-04-26 19:23 47.88182 8.90796 37263 ft 455 kts 28°
2026-04-26 19:23 47.90994 8.92746 37253 ft 450 kts 13°
2026-04-26 19:24 47.94038 8.93662 37241 ft 446 kts
2026-04-26 19:24 48.03281 8.95649 37225 ft 448 kts
2026-04-26 19:25 48.07406 8.96535 37221 ft 447 kts
2026-04-26 19:25 48.15501 8.98312 37223 ft 431 kts
2026-04-26 19:26 48.21404 8.99617 37223 ft 427 kts
2026-04-26 19:26 48.27263 9.01071 37228 ft 427 kts
2026-04-26 19:27 48.33112 9.02592 37220 ft 426 kts
2026-04-26 19:27 48.38960 9.04084 37224 ft 426 kts
2026-04-26 19:28 48.43819 9.05309 37223 ft 426 kts
2026-04-26 19:28 48.49667 9.06789 37223 ft 426 kts
2026-04-26 19:29 48.55513 9.08273 37219 ft 426 kts
2026-04-26 19:29 48.61358 9.09755 37221 ft 426 kts
2026-04-26 19:30 48.67249 9.11244 37225 ft 426 kts
2026-04-26 19:30 48.72097 9.12485 37239 ft 426 kts
2026-04-26 19:31 48.78899 9.14233 37231 ft 426 kts
2026-04-26 19:31 48.84749 9.15741 37234 ft 426 kts
2026-04-26 19:32 48.90599 9.17242 37243 ft 426 kts
2026-04-26 19:32 48.96447 9.18750 37248 ft 426 kts
2026-04-26 19:33 49.02289 9.20254 37247 ft 426 kts
2026-04-26 19:33 49.08129 9.21758 37252 ft 426 kts
2026-04-26 19:34 49.13962 9.23278 37247 ft 425 kts
2026-04-26 19:34 49.19792 9.24792 37259 ft 425 kts
2026-04-26 19:35 49.25626 9.26312 37260 ft 425 kts
2026-04-26 19:35 49.31456 9.27842 37254 ft 425 kts
2026-04-26 19:36 49.36301 9.29110 37257 ft 425 kts
2026-04-26 19:36 49.43121 9.30910 37266 ft 425 kts
2026-04-26 19:37 49.48913 9.32439 37263 ft 425 kts
2026-04-26 19:37 49.54742 9.33973 37260 ft 425 kts
2026-04-26 19:38 49.60562 9.35514 37274 ft 424 kts
2026-04-26 19:38 49.66379 9.37093 37268 ft 424 kts
2026-04-26 19:39 49.72189 9.38750 37268 ft 425 kts
2026-04-26 19:39 49.78000 9.40431 37266 ft 424 kts
2026-04-26 19:40 49.83807 9.42089 37282 ft 424 kts
2026-04-26 19:40 49.89608 9.43739 37280 ft 424 kts
2026-04-26 19:41 49.95412 9.45401 37277 ft 424 kts
2026-04-26 19:41 50.00241 9.46788 37276 ft 424 kts
2026-04-26 19:42 50.07027 9.48719 37291 ft 423 kts
2026-04-26 19:42 50.12857 9.49945 37294 ft 422 kts
2026-04-26 19:43 50.18696 9.50843 37288 ft 421 kts
2026-04-26 19:43 50.24520 9.51770 37289 ft 421 kts
2026-04-26 19:44 50.30349 9.52791 37301 ft 421 kts
2026-04-26 19:44 50.36166 9.53845 37295 ft 420 kts
2026-04-26 19:45 50.41974 9.54894 37293 ft 420 kts
2026-04-26 19:45 50.47790 9.55935 37291 ft 420 kts
2026-04-26 19:46 50.53592 9.56966 37299 ft 420 kts
2026-04-26 19:46 50.59392 9.58009 37295 ft 419 kts
2026-04-26 19:47 50.64209 9.58869 37297 ft 420 kts
2026-04-26 19:47 50.70992 9.60092 37294 ft 420 kts
2026-04-26 19:48 50.76794 9.61142 37290 ft 420 kts
2026-04-26 19:48 50.82597 9.62196 37288 ft 419 kts
2026-04-26 19:49 50.88393 9.63254 37291 ft 419 kts
2026-04-26 19:49 50.94191 9.64296 37299 ft 419 kts
2026-04-26 19:50 50.99990 9.65347 37296 ft 419 kts
2026-04-26 19:50 51.05769 9.66411 37310 ft 417 kts
2026-04-26 19:51 51.11499 9.67467 37321 ft 413 kts
2026-04-26 19:51 51.17160 9.68508 37321 ft 411 kts
2026-04-26 19:52 51.22827 9.69534 37322 ft 409 kts
2026-04-26 19:52 51.28487 9.70446 37317 ft 408 kts
2026-04-26 19:53 51.34133 9.71332 37318 ft 407 kts
2026-04-26 19:53 51.39770 9.72236 37304 ft 407 kts
2026-04-26 19:54 51.45403 9.73005 37320 ft 403 kts 353°
2026-04-26 19:54 51.48109 9.72121 37314 ft 395 kts 337°
2026-04-26 19:54 51.50642 9.70429 37305 ft 395 kts 334°
2026-04-26 19:55 51.55664 9.66836 37303 ft 395 kts 334°
2026-04-26 19:55 51.60691 9.63215 37285 ft 396 kts 334°
2026-04-26 19:56 51.65727 9.59580 37310 ft 397 kts 334°
2026-04-26 19:56 51.70776 9.55992 37312 ft 397 kts 339°
2026-04-26 19:57 51.73483 9.55075 37310 ft 401 kts 355°
2026-04-26 19:57 51.76276 9.55480 37312 ft 407 kts
2026-04-26 19:57 51.81829 9.57373 37308 ft 409 kts
2026-04-26 19:58 51.87393 9.59334 37302 ft 409 kts
2026-04-26 19:58 51.92962 9.61284 37319 ft 409 kts
2026-04-26 19:59 51.95739 9.62248 36955 ft 408 kts
2026-04-26 19:59 51.98521 9.63207 36283 ft 408 kts
2026-04-26 19:59 52.01305 9.64166 35594 ft 409 kts
2026-04-26 19:59 52.04090 9.65127 34905 ft 410 kts
2026-04-26 20:00 52.06887 9.66095 34205 ft 411 kts
2026-04-26 20:00 52.09689 9.67068 33399 ft 412 kts
2026-04-26 20:00 52.12489 9.68046 32694 ft 411 kts
2026-04-26 20:00 52.15243 9.69012 32079 ft 410 kts
2026-04-26 20:01 52.18060 9.70003 31612 ft 408 kts
2026-04-26 20:01 52.20800 9.70966 31339 ft 408 kts
2026-04-26 20:01 52.23569 9.71938 31065 ft 407 kts
2026-04-26 20:01 52.26338 9.72914 30787 ft 406 kts
2026-04-26 20:02 52.29095 9.73883 30517 ft 405 kts
2026-04-26 20:02 52.31842 9.74848 30229 ft 404 kts
2026-04-26 20:02 52.34587 9.75817 29911 ft 402 kts
2026-04-26 20:02 52.36434 9.76472 29722 ft 402 kts
2026-04-26 20:03 52.40041 9.77757 29313 ft 401 kts
2026-04-26 20:03 52.42758 9.78722 29008 ft 399 kts
2026-04-26 20:03 52.45475 9.79682 28710 ft 397 kts
2026-04-26 20:03 52.48170 9.80636 28411 ft 395 kts
2026-04-26 20:04 52.50859 9.81587 28115 ft 394 kts
2026-04-26 20:04 52.53526 9.82520 27832 ft 391 kts
2026-04-26 20:04 52.56178 9.83454 27538 ft 389 kts
2026-04-26 20:04 52.58820 9.84398 27253 ft 389 kts
2026-04-26 20:05 52.61455 9.85343 26848 ft 385 kts
2026-04-26 20:05 52.64062 9.86282 26339 ft 383 kts
2026-04-26 20:05 52.66652 9.87220 25856 ft 380 kts
2026-04-26 20:05 52.69226 9.88151 25381 ft 377 kts
2026-04-26 20:06 52.71776 9.89070 24909 ft 374 kts
2026-04-26 20:06 52.74312 9.89980 24432 ft 371 kts
2026-04-26 20:06 52.76827 9.90884 23966 ft 369 kts
2026-04-26 20:06 52.79329 9.91785 23443 ft 367 kts
2026-04-26 20:07 52.81815 9.92680 22934 ft 364 kts
2026-04-26 20:07 52.84281 9.93568 22461 ft 361 kts
2026-04-26 20:07 52.86726 9.94446 21987 ft 358 kts
2026-04-26 20:07 52.89116 9.95308 21511 ft 355 kts
2026-04-26 20:08 52.91525 9.96182 21054 ft 353 kts
2026-04-26 20:08 52.93917 9.97055 20595 ft 350 kts
2026-04-26 20:08 52.96285 9.97919 20141 ft 348 kts
2026-04-26 20:08 52.98641 9.98775 19696 ft 345 kts
2026-04-26 20:09 53.00984 9.99624 19263 ft 343 kts
2026-04-26 20:09 53.03306 10.00472 18851 ft 341 kts
2026-04-26 20:09 53.05614 10.01315 18403 ft 338 kts
2026-04-26 20:09 53.07903 10.02149 17953 ft 336 kts
2026-04-26 20:10 53.10177 10.02977 17509 ft 333 kts
2026-04-26 20:10 53.12438 10.03802 17079 ft 331 kts
2026-04-26 20:10 53.13955 10.04355 16797 ft 329 kts
2026-04-26 20:10 53.16182 10.05171 16392 ft 327 kts
2026-04-26 20:11 53.18394 10.05984 15990 ft 324 kts
2026-04-26 20:11 53.20591 10.06791 15587 ft 322 kts
2026-04-26 20:11 53.22771 10.07592 15193 ft 320 kts
2026-04-26 20:12 53.27062 10.09166 14415 ft 315 kts
2026-04-26 20:12 53.29198 10.09955 14022 ft 312 kts 10°
2026-04-26 20:12 53.31300 10.10736 13288 ft 307 kts 10°
2026-04-26 20:12 53.33372 10.11504 12502 ft 304 kts 10°
2026-04-26 20:13 53.35426 10.12265 11741 ft 300 kts 10°
2026-04-26 20:13 53.37439 10.13010 11264 ft 288 kts 10°
2026-04-26 20:13 53.39355 10.13619 10826 ft 274 kts
2026-04-26 20:13 53.41235 10.13664 10250 ft 268 kts 353°
2026-04-26 20:14 53.43088 10.13408 9563 ft 266 kts 354°
2026-04-26 20:14 53.44923 10.13169 8879 ft 264 kts 354°
2026-04-26 20:14 53.46747 10.12937 8177 ft 262 kts 354°
2026-04-26 20:14 53.48559 10.12705 7536 ft 260 kts 354°
2026-04-26 20:15 53.50366 10.12474 7350 ft 262 kts 354°
2026-04-26 20:15 53.52167 10.12245 6915 ft 258 kts 354°
2026-04-26 20:15 53.53922 10.12030 6580 ft 242 kts 354°
2026-04-26 20:15 53.55551 10.11834 6218 ft 230 kts 354°
2026-04-26 20:16 53.57145 10.11859 5681 ft 230 kts
2026-04-26 20:16 53.58680 10.12771 4807 ft 244 kts 29°
2026-04-26 20:16 53.59989 10.14747 4195 ft 267 kts 50°
2026-04-26 20:16 53.61200 10.17226 4024 ft 278 kts 50°
2026-04-26 20:17 53.62449 10.19734 4004 ft 281 kts 49°
2026-04-26 20:17 53.63714 10.22257 4007 ft 281 kts 49°
2026-04-26 20:17 53.64971 10.24769 4002 ft 281 kts 49°
2026-04-26 20:17 53.65805 10.26440 4007 ft 281 kts 49°
2026-04-26 20:18 53.67437 10.29725 3907 ft 260 kts 49°
2026-04-26 20:18 53.68545 10.31972 3661 ft 241 kts 49°
2026-04-26 20:18 53.69605 10.34123 3187 ft 236 kts 49°
2026-04-26 20:18 53.70646 10.36234 2986 ft 234 kts 49°
2026-04-26 20:19 53.71694 10.38345 2984 ft 235 kts 47°
2026-04-26 20:19 53.72984 10.39978 2987 ft 233 kts 18°
2026-04-26 20:19 53.74557 10.40205 2987 ft 227 kts 344°
2026-04-26 20:19 53.75976 10.39125 2986 ft 223 kts 322°
2026-04-26 20:20 53.77095 10.37349 2985 ft 220 kts 305°
2026-04-26 20:20 53.77818 10.35093 2985 ft 218 kts 287°
2026-04-26 20:20 53.78087 10.32595 2986 ft 217 kts 269°
2026-04-26 20:20 53.77887 10.30081 2995 ft 217 kts 252°
2026-04-26 20:21 53.77232 10.27795 3000 ft 217 kts 235°
2026-04-26 20:21 53.76282 10.25813 3001 ft 217 kts 231°
2026-04-26 20:21 53.75318 10.23840 3003 ft 217 kts 231°
2026-04-26 20:21 53.74359 10.21879 3001 ft 213 kts 231°
2026-04-26 20:22 53.73453 10.20028 2991 ft 194 kts 231°
2026-04-26 20:22 53.72643 10.18373 2893 ft 177 kts 231°
2026-04-26 20:22 53.71872 10.16798 2668 ft 171 kts 232°
2026-04-26 20:22 53.71121 10.15266 2435 ft 167 kts 232°
2026-04-26 20:23 53.70384 10.13762 2214 ft 166 kts 232°
2026-04-26 20:23 53.69646 10.12259 1976 ft 166 kts 232°
2026-04-26 20:23 53.68910 10.10758 1756 ft 165 kts 232°
2026-04-26 20:23 53.68186 10.09287 1525 ft 157 kts 232°
2026-04-26 20:24 53.67528 10.07950 1327 ft 142 kts 233°
2026-04-26 20:24 53.66909 10.06690 1134 ft 138 kts 234°
2026-04-26 20:24 53.66301 10.05452 945 ft 137 kts 233°
2026-04-26 20:24 53.65701 10.04233 752 ft 136 kts 234°
2026-04-26 20:25 53.65100 10.03014 573 ft 135 kts 233°
2026-04-26 20:25 53.64704 10.02209 435 ft 135 kts 232°
2026-04-26 20:25 53.63908 10.00591 198 ft 133 kts 232°
2026-04-26 20:25 53.63319 9.99392 50 ft 131 kts 232°
2026-04-26 20:26 53.62824 9.98397 44 ft 88 kts 230°
2026-04-26 20:26 53.62551 9.97842 41 ft 25 kts 226°
2026-04-26 20:26 53.62453 9.97815 42 ft 12 kts 152°
2026-04-26 20:26 53.62427 9.97906 46 ft 7 kts 88°
2026-04-26 20:27 53.62434 9.97971 47 ft 6 kts 78°
2026-04-26 20:27 53.62447 9.98038 46 ft 7 kts 68°
2026-04-26 20:27 53.62498 9.98166 47 ft 20 kts 51°
2026-04-26 20:27 53.62609 9.98388 47 ft 28 kts 50°
2026-04-26 20:28 53.62745 9.98663 47 ft 31 kts 50°
2026-04-26 20:28 53.62887 9.98952 47 ft 33 kts 50°
2026-04-26 20:28 53.63022 9.99225 46 ft 24 kts 50°
2026-04-26 20:28 53.63081 9.99356 46 ft 4 kts 54°
2026-04-26 20:29 53.63084 9.99364 47 ft 0 kts 55°
2026-04-26 20:30 53.63109 9.99426 45 ft 17 kts 57°
2026-04-26 20:31 53.63195 9.99621 46 ft 22 kts 48°
2026-04-26 20:31 53.63304 9.99812 48 ft 24 kts 50°
2026-04-26 20:31 53.63411 10.00027 48 ft 19 kts 50°
2026-04-26 20:31 53.63391 10.00165 46 ft 14 kts 159°
2026-04-26 20:32 53.63304 10.00167 46 ft 12 kts 176°
2026-04-26 20:32 53.63226 10.00186 48 ft 11 kts 155°
2026-04-26 20:32 53.63203 10.00276 48 ft 8 kts 99°
2026-04-26 20:32 53.63206 10.00361 48 ft 1 kts 86°
2026-04-26 20:33 53.63206 10.00364 48 ft 0 kts 86°